Miscellaneous Local Product
Issued by NWS North Platte, NE

Home | Current Version | Previous Version | Text Only | Print | Product List | Glossary On
Versions: 1 2 3 4 5 6 7 8 9 10 11 12 13 14 15 16 17 18 19 20 21 22 23 24 25 26 27 28 29 30 31 32 33 34 35 36 37 38 39 40 41 42 43 44 45 46 47 48 49 50
000
AXUS43 KLBF 181710
MISLBF


WESTERN AND NORTH CENTRAL NEBRASKA HOURLY WEATHER ROUNDUP
NATIONAL WEATHER SERVICE NORTH PLATTE NE
1200 PM CDT FRI AUG 18 2017

NOTE: "FAIR" INDICATES FEW OR NO CLOUDS BELOW 12,000 FEET WITH NO
SIGNIFICANT WEATHER AND/OR OBSTRUCTIONS TO VISIBILITY.

NOTE: STATIONS NOT REPORTING VARIABLES SUCH AS SKY/WEATHER OR
PRESSURE ARE PROVIDED BY RAWS AND APRS NETWORKS AND ARE NOT UNDER
NATIONAL WEATHER SERVICE QUALITY CONTROL.

...OBSERVATIONS IN AND NEAR THE EASTERN PANHANDLE OF NEBRASKA...

CITY           SKY/WX    TMP DP  RH WIND       PRES   REMARKS
PINE RIDGE     SUNNY     78  51  38 W7        30.07F
GORDON         FAIR      80  47  30 NW12G20   30.08S
CHADRON        SUNNY     80  50  34 VRB6      30.08F
ALLIANCE       SUNNY     79  52  38 NW12      30.12S
SIDNEY         SUNNY     81  44  27 N5        30.17S
CRESCENT LAKE    N/A     80  51  35 NW7         N/A
$$

...OBSERVATIONS IN NORTHERN NEBRASKA AND FAR SOUTHERN SOUTH DAKOTA...

CITY           SKY/WX    TMP DP  RH WIND       PRES   REMARKS
WINNER         FAIR      77  58  51 NW15      29.97R
VALENTINE      SUNNY     82  50  32 NW13      30.00S
THEDFORD       SUNNY     80  57  45 NW10      30.05S
AINSWORTH      SUNNY     79  58  47 NW9       30.00F
O`NEILL        SUNNY     78  63  59 W8        29.97S
ORD            SUNNY     79  59  50 NW7       29.97F
BROKEN BOW     SUNNY     83  55  38 NW10      30.01F
VALENTINE NWR    N/A     78  55  45 W10         N/A
HALSEY           N/A     79  58  48 W6          N/A
BUTTE            N/A     75  60  58 NW10        N/A
CHAMBERS         N/A     81  59  47 CALM        N/A
EWING            N/A     76  63  63 CALM        N/A
$$

...OBSERVATIONS IN SOUTHWEST NEBRASKA AND FAR NORTHEAST COLORADO...

CITY           SKY/WX    TMP DP  RH WIND       PRES   REMARKS
HOLYOKE        FAIR      81  52  36 N9        30.12F
IMPERIAL       SUNNY     79  56  45 N10       30.09S
OGALLALA       SUNNY     79  51  37 NW6       30.10S
NORTH PLATTE   SUNNY     78  64  61 W7        30.05F
MCCOOK         SUNNY     80  61  52 N10       30.04R
LEXINGTON      SUNNY     77  64  63 NW9       30.03S
STAPLETON        N/A     80  56  43 CALM        N/A
GOTHENBURG       N/A     73  57  57 W6          N/A
CALLAWAY         N/A     75  64  70 NW9         N/A
$$

...OBSERVATIONS IN CENTRAL LINCOLN COUNTY AREA...

CITY           SKY/WX    TMP DP  RH WIND       PRES   REMARKS
N.P. AIRPORT   SUNNY     78  64  61 W7        30.05F
N.P. SOUTHEAST   N/A     78  61  55 CALM        N/A
N.P. HILLCREST   N/A     78  62  57 NW3         N/A
$$

...SOME OBSERVATIONS FROM AROUND THE REGION...

CITY           SKY/WX    TMP DP  RH WIND       PRES   REMARKS
DENVER         MOSUNNY   76  45  33 CALM      30.23F
LIMON          SUNNY     77  46  33 VRB5      30.23F
ASPEN          SUNNY     73  39  29 N5        30.40F
LARAMIE        SUNNY     69  38  32 SE3       30.33F
CASPER         SUNNY     76  41  28 W9        30.21S
CHEYENNE       SUNNY     75  42  30 W5        30.26F
SCOTTSBLUFF    SUNNY     76  49  38 W7        30.14S
GRAND ISLAND   SUNNY     79  64  60 W5        29.99S
OMAHA          MOSUNNY   83  60  45 N10       29.93F
SIOUX FALLS    MOSUNNY   75  62  64 S9        29.93F
PIERRE         MOSUNNY   77  55  46 NW13      29.95S
RAPID CITY     SUNNY     78  47  33 N10       30.07R
BISMARCK       SUNNY     74  56  53 NW7       29.96F
KANSAS CITY    CLOUDY    81  67  62 SW14      29.96S
HILL CITY      SUNNY     80  66  62 W10       30.01F
WICHITA        MOSUNNY   85  66  53 CALM      29.99R
DODGE CITY     SUNNY     85  56  37 SW15G22   30.05F
OKLAHOMA CITY  CLOUDY    86  65  49 S14       29.99F
DALLAS         PTSUNNY   91  73  55 VRB7      30.04S HX  99
AMARILLO       SUNNY     77  64  64 S18       30.15F
$$




USA.gov is the U.S. government's official web portal to all federal, state and local government web resources and services.